Terminal Aerodrome Forecast
Issued by NWS Albany, NY

Current Version | Previous Version | Text Only | Print | Product List | Glossary On
Versions: 1 2 3 4 5 6 7 8 9 10 11 12 13 14 15 16 17 18 19 20 21 22
000
FTUS41 KALY 062336
TAFPOU
TAF
KPOU 062336Z 0700/0724 18004KT P6SM SCT080 BKN120
     FM070500 VRB02KT 6SM BR SCT020 BKN040
     FM070800 VRB02KT 5SM BR VCSH SCT008 OVC015
     FM071300 17004KT P6SM VCSH OVC020
     FM071700 19005KT P6SM -SHRA BKN035=

USA.gov is the U.S. government's official web portal to all federal, state and local government web resources and services.